When you browse on this site, cookies collect data to enhance your experience and personalize the content and advertising you see.
Visit our Privacy Policy to learn more. By continuing to use the site, you agree to this use of cookies and data.
  • In Latvia
  • List of Countries
  • For 7 days
  • Water Temperature
  • Satellite Maps
  • Weather Map
  • Weather Widgets
  • user-avatar
    Login

    Hourly Weather Bielasy

    Today, 21 February, Thursday

    Time Temperature Precipitation Wind Pressure Humidity
    00:00 -2°C° 0 mm 2 mps 710 mmHg 89%
    01:00 -2°C° 0 mm 2 mps 710 mmHg 88%
    02:00 -2°C° 0 mm 2 mps 710 mmHg 87%
    03:00 -2°C° 0 mm 2 mps 710 mmHg 86%
    04:00 -2°C° 0 mm 2 mps 710 mmHg 85%
    05:00 -2°C° 0 mm 2 mps 711 mmHg 85%
    06:00 -2°C° 0 mm 2 mps 711 mmHg 84%
    07:00 -2°C° 0 mm 2 mps 711 mmHg 85%
    08:00 +1°C° 0 mm 2 mps 711 mmHg 81%
    09:00 +2°C° 0 mm 3 mps 711 mmHg 77%
    10:00 +3°C° 0 mm 3 mps 711 mmHg 74%
    11:00 +4°C° 0 mm 3 mps 711 mmHg 72%
    12:00 +4°C° 0 mm 3 mps 711 mmHg 70%
    13:00 +5°C° 0 mm 3 mps 711 mmHg 68%
    14:00 +5°C° 0 mm 3 mps 710 mmHg 72%
    15:00 +4°C° 0 mm 3 mps 710 mmHg 75%
    16:00 +4°C° 0 mm 3 mps 710 mmHg 79%
    17:00 +3°C° 0.4 mm 3 mps 710 mmHg 82%
    18:00 +2°C° 0.4 mm 3 mps 709 mmHg 86%
    19:00 +2°C° 0.4 mm 3 mps 709 mmHg 89%
    20:00 +2°C° 0.7 mm 3 mps 709 mmHg 91%
    21:00 +2°C° 0.7 mm 2 mps 709 mmHg 92%
    22:00 +2°C° 0.7 mm 2 mps 708 mmHg 94%
    23:00 +2°C° 0.8 mm 2 mps 708 mmHg 94%

    Tomorrow, 22 February, Friday

    Time Temperature Precipitation Wind Pressure Humidity
    00:00 +2°C° 0.8 mm 2 mps 708 mmHg 94%
    01:00 +2°C° 0.8 mm 2 mps 707 mmHg 94%
    02:00 +2°C° 0.6 mm 2 mps 707 mmHg 95%
    03:00 +2°C° 0.6 mm 2 mps 707 mmHg 95%
    04:00 +2°C° 0.6 mm 2 mps 707 mmHg 96%
    05:00 +1°C° 1 mm 3 mps 707 mmHg 96%
    06:00 +1°C° 1 mm 3 mps 708 mmHg 96%
    07:00 0°C° 1 mm 4 mps 708 mmHg 96%
    08:00 -1°C° 0.5 mm 4 mps 709 mmHg 94%
    09:00 -4°C° 0.5 mm 5 mps 710 mmHg 91%
    10:00 -6°C° 0.5 mm 5 mps 711 mmHg 89%
    11:00 -6°C° 0.1 mm 5 mps 712 mmHg 83%
    12:00 -6°C° 0.1 mm 5 mps 713 mmHg 77%
    13:00 -6°C° 0.1 mm 6 mps 714 mmHg 71%
    14:00 -6°C° 0 mm 5 mps 715 mmHg 68%
    15:00 -7°C° 0 mm 5 mps 715 mmHg 65%
    16:00 -7°C° 0 mm 5 mps 716 mmHg 62%
    17:00 -8°C° 0 mm 5 mps 716 mmHg 64%
    18:00 -9°C° 0 mm 4 mps 717 mmHg 67%
    19:00 -10°C° 0 mm 4 mps 717 mmHg 70%
    20:00 -10°C° 0 mm 4 mps 718 mmHg 69%
    21:00 -10°C° 0 mm 4 mps 718 mmHg 68%
    22:00 -10°C° 0 mm 4 mps 719 mmHg 67%
    23:00 -11°C° 0 mm 4 mps 719 mmHg 65%

    Day after tomorrow, 23 February, Saturday

    Time Temperature Precipitation Wind Pressure Humidity
    00:00 -10°C° 0 mm 3 mps 720 mmHg 63%
    01:00 -10°C° 0 mm 3 mps 720 mmHg 60%
    02:00 -10°C° 0 mm 3 mps 720 mmHg 60%
    03:00 -10°C° 0 mm 3 mps 720 mmHg 60%
    04:00 -10°C° 0 mm 3 mps 720 mmHg 60%
    05:00 -9°C° 0 mm 2 mps 720 mmHg 61%
    06:00 -9°C° 0 mm 2 mps 720 mmHg 63%
    07:00 -9°C° 0 mm 2 mps 721 mmHg 64%
    08:00 -9°C° 0 mm 2 mps 721 mmHg 59%
    09:00 -9°C° 0 mm 3 mps 721 mmHg 55%
    10:00 -8°C° 0 mm 3 mps 721 mmHg 51%
    11:00 -7°C° 0 mm 3 mps 722 mmHg 49%
    12:00 -7°C° 0 mm 3 mps 722 mmHg 46%
    13:00 -6°C° 0 mm 3 mps 722 mmHg 44%
    14:00 -6°C° 0 mm 3 mps 721 mmHg 44%
    15:00 -5°C° 0 mm 2 mps 721 mmHg 44%
    16:00 -5°C° 0 mm 2 mps 721 mmHg 45%
    17:00 -6°C° 0 mm 2 mps 721 mmHg 48%
    18:00 -6°C° 0 mm 1 mps 721 mmHg 52%
    19:00 -6°C° 0 mm 1 mps 721 mmHg 56%
    20:00 -7°C° 0 mm 1 mps 721 mmHg 56%
    21:00 -7°C° 0 mm 0 mps 721 mmHg 57%
    22:00 -7°C° 0 mm 0 mps 721 mmHg 58%
    23:00 -7°C° 0 mm 0 mps 721 mmHg 58%

    24 February, Sunday

    Time Temperature Precipitation Wind Pressure Humidity
    00:00 -7°C° 0 mm 0 mps 721 mmHg 58%
    01:00 -7°C° 0 mm 0 mps 720 mmHg 58%
    02:00 -6°C° 0 mm 0 mps 720 mmHg 56%
    03:00 -6°C° 0 mm 0 mps 720 mmHg 55%
    04:00 -6°C° 0 mm 0 mps 720 mmHg 53%
    05:00 -6°C° 0 mm 0 mps 720 mmHg 52%
    06:00 -6°C° 0 mm 0 mps 720 mmHg 50%
    07:00 -6°C° 0 mm 0 mps 720 mmHg 49%
    08:00 -4°C° 0 mm 0 mps 720 mmHg 44%
    09:00 -3°C° 0 mm 0 mps 720 mmHg 38%
    10:00 -1°C° 0 mm 0 mps 720 mmHg 33%
    11:00 0°C° 0 mm 0 mps 720 mmHg 34%
    12:00 +2°C° 0 mm 1 mps 720 mmHg 36%
    13:00 +2°C° 0 mm 1 mps 720 mmHg 37%
    14:00 +2°C° 0 mm 1 mps 719 mmHg 41%
    15:00 +2°C° 0 mm 1 mps 719 mmHg 45%
    16:00 +2°C° 0 mm 1 mps 719 mmHg 48%
    17:00 0°C° 0 mm 1 mps 719 mmHg 50%
    18:00 -1°C° 0 mm 1 mps 719 mmHg 52%
    19:00 -3°C° 0 mm 0 mps 719 mmHg 54%
    20:00 -2°C° 0 mm 1 mps 719 mmHg 54%
    21:00 -2°C° 0 mm 1 mps 719 mmHg 53%
    22:00 -2°C° 0 mm 1 mps 719 mmHg 53%
    23:00 -2°C° 0 mm 1 mps 719 mmHg 53%

    25 February, Monday

    Time Temperature Precipitation Wind Pressure Humidity
    00:00 -2°C° 0 mm 1 mps 719 mmHg 53%
    01:00 -2°C° 0 mm 1 mps 719 mmHg 54%
    02:00 -2°C° 0 mm 1 mps 719 mmHg 55%
    03:00 -2°C° 0 mm 1 mps 719 mmHg 56%
    04:00 -2°C° 0 mm 1 mps 719 mmHg 58%
    05:00 -2°C° 0 mm 1 mps 719 mmHg 60%
    06:00 -2°C° 0 mm 1 mps 719 mmHg 62%
    07:00 -2°C° 0 mm 1 mps 719 mmHg 64%
    08:00 0°C° 0 mm 1 mps 719 mmHg 63%
    09:00 +2°C° 0 mm 1 mps 720 mmHg 62%
    10:00 +2°C° 0 mm 2 mps 720 mmHg 61%
    11:00 +3°C° 0 mm 2 mps 720 mmHg 60%
    12:00 +4°C° 0 mm 2 mps 719 mmHg 60%
    13:00 +5°C° 0 mm 2 mps 719 mmHg 60%
    14:00 +5°C° 0 mm 2 mps 719 mmHg 64%
    15:00 +5°C° 0 mm 1 mps 718 mmHg 69%
    16:00 +4°C° 0 mm 1 mps 718 mmHg 73%
    17:00 +3°C° 0 mm 1 mps 718 mmHg 77%
    18:00 +2°C° 0 mm 1 mps 718 mmHg 80%
    19:00 0°C° 0 mm 1 mps 718 mmHg 84%
    20:00 0°C° 0 mm 1 mps 718 mmHg 85%
    21:00 0°C° 0 mm 1 mps 718 mmHg 86%
    22:00 0°C° 0 mm 1 mps 717 mmHg 87%
    23:00 0°C° 0 mm 1 mps 717 mmHg 88%

    26 February, Tuesday

    Time Temperature Precipitation Wind Pressure Humidity
    00:00 0°C° 0 mm 1 mps 717 mmHg 89%
    01:00 0°C° 0 mm 1 mps 716 mmHg 90%
    02:00 0°C° 0 mm 1 mps 716 mmHg 90%
    03:00 0°C° 0 mm 1 mps 716 mmHg 90%
    04:00 0°C° 0 mm 1 mps 715 mmHg 90%
    05:00 0°C° 0 mm 1 mps 715 mmHg 89%
    06:00 -1°C° 0 mm 2 mps 714 mmHg 88%
    07:00 -1°C° 0 mm 2 mps 714 mmHg 87%
    08:00 +2°C° 0 mm 2 mps 714 mmHg 82%
    09:00 +3°C° 0 mm 2 mps 714 mmHg 78%
    10:00 +4°C° 0 mm 3 mps 714 mmHg 73%
    11:00 +4°C° 0 mm 3 mps 713 mmHg 71%
    12:00 +5°C° 0 mm 3 mps 713 mmHg 68%
    13:00 +6°C° 0 mm 4 mps 712 mmHg 66%
    14:00 +5°C° 0.2 mm 3 mps 711 mmHg 71%
    15:00 +4°C° 0.2 mm 3 mps 711 mmHg 77%
    16:00 +3°C° 0.2 mm 3 mps 710 mmHg 82%
    17:00 +2°C° 0.4 mm 3 mps 710 mmHg 85%
    18:00 +3°C° 0.4 mm 2 mps 710 mmHg 88%
    19:00 +3°C° 0.4 mm 2 mps 710 mmHg 91%
    20:00 +2°C° 0 mm 2 mps 710 mmHg 93%
    21:00 +2°C° 0 mm 2 mps 710 mmHg 94%
    22:00 +2°C° 0 mm 2 mps 710 mmHg 96%
    23:00 +2°C° 0 mm 2 mps 711 mmHg 96%
    Show more